This demonstration page uses our WeatherBlox Daily Observations layout. Learn more.

Left ArrowRight Arrow

41.12389, -100.76542

Hourly Observations for August 1, 2019

Temp ( °F °C ) Dew Point ( °F °C ) Humidity (%) Winds ( mph kmh ) Pressure ( in mb ) Visibility ( mi km ) Precip ( " mm )
12:53 am 00:53 Clear 69 20.6 65 18.3 87 87 SE 5 7 30.00 1016 10 16 0.00 0.00
1:53 am 01:53 Clear 67 19.4 64 17.8 91 91 ESE 6 9 29.98 1015 10 16 0.00 0.00
2:53 am 02:53 Clear 66 18.9 63 17.2 90 90 SSE 3 6 29.98 1015 10 16 0.00 0.00
3:53 am 03:53 Clear 63 17.2 61 16.1 93 93 Calm 30.00 1016 10 16 0.00 0.00
4:23 am 04:23 Mostly Cloudy 64 17.8 62 16.7 93 93 Calm 30.00 1016 10 16 0.00 0.00
4:53 am 04:53 Cloudy 66 18.9 64 17.8 93 93 Calm 30.01 1016 10 16 0.00 0.00
5:53 am 05:53 Cloudy 67 19.4 65 18.3 93 93 NE 8 13 30.01 1016 10 16 0.00 0.00
6:53 am 06:53 Cloudy 67 19.4 65 18.3 93 93 ESE 8 13 30.01 1016 10 16 0.00 0.00
7:53 am 07:53 Cloudy 68 20 65 18.3 90 90 E 10 17 30.01 1016 8 13 0.00 0.00
8:53 am 08:53 Cloudy 68 20 65 18.3 90 90 ESE 10 17 30.03 1017 10 16 0.00 0.00
9:53 am 09:53 Cloudy 67 19.4 64 17.8 91 91 SE 12 19 30.05 1018 10 16 0.00 0.00
10:53 am 10:53 Cloudy 69 20.6 65 18.3 87 87 SE 9 15 30.06 1018 10 16 0.00 0.00
11:53 am 11:53 Cloudy 70 21.1 65 18.3 84 84 SE 3 6 30.06 1018 10 16 0.00 0.00
12:53 pm 12:53 Cloudy 71 21.7 65 18.3 81 81 Calm 30.07 1018 10 16 0.00 0.00
1:53 pm 13:53 Cloudy 72 22.2 66 18.9 82 82 E 6 9 30.06 1018 10 16 0.00 0.00
2:12 pm 14:12 Cloudy 72 22.2 66 18.9 82 82 E 6 9 30.00 1016 10 16 0.00 0.00
2:53 pm 14:53 Cloudy 73 22.8 66 18.9 79 79 E 7 11 30.06 1018 10 16 0.00 0.00
3:24 pm 15:24 Cloudy 74 23.3 67 19.4 79 79 ESE 8 13 29.97 1015 10 16 0.00 0.00
3:53 pm 15:53 Cloudy 74 23.3 67 19.4 79 79 ESE 9 15 30.05 1018 10 16 0.00 0.00
4:53 pm 16:53 Cloudy 74 23.3 67 19.4 79 79 SE 12 19 30.04 1017 10 16 0.00 0.00
5:53 pm 17:53 Cloudy 74 23.3 67 19.4 79 79 ESE 10 17 30.02 1017 10 16 0.00 0.00
6:43 pm 18:43 Partly Cloudy 74 23.3 68 20 82 82 E 7 11 29.95 1014 10 16 0.00 0.00
6:53 pm 18:53 Partly Cloudy 74 23.3 68 20 82 82 E 8 13 30.01 1016 10 16 0.00 0.00
7:18 pm 19:18 Mostly Cloudy 74 23.3 67 19.4 79 79 E 8 13 29.95 1014 10 16 0.00 0.00
7:53 pm 19:53 Cloudy 74 23.3 68 20 82 82 E 8 13 30.02 1017 10 16 0.00 0.00
8:53 pm 20:53 Cloudy 73 22.8 68 20 84 84 ENE 3 6 30.04 1017 10 16 0.00 0.00
9:05 pm 21:05 Cloudy 73 22.8 68 20 84 84 E 6 9 29.97 1015 10 16 0.00 0.00
9:53 pm 21:53 Cloudy 73 22.8 68 20 84 84 E 8 13 30.04 1017 10 16 0.00 0.00
10:12 pm 22:12 Mostly Cloudy 72 22.2 68 20 87 87 ESE 7 11 29.98 1015 10 16 0.00 0.00
10:37 pm 22:37 Partly Cloudy 72 22.2 69 20.6 91 91 ESE 5 7 29.99 1016 10 16 0.00 0.00
10:51 pm 22:51 Mostly Cloudy 72 22 70 21 94 94 Calm 29.99 1016 10 16 0.00 0.00
10:53 pm 22:53 Mostly Cloudy 72 22.2 69 20.6 91 91 Calm 30.05 1018 10 16 0.00 0.00
11:29 pm 23:29 Cloudy 72 22.2 69 20.6 91 91 Calm 30.00 1016 10 16 0.00 0.00
11:53 pm 23:53 Cloudy 72 22.2 69 20.6 91 91 NE 3 6 30.06 1018 10 16 0.00 0.00

Powered by AerisWeather